KOMPSAT-3A

Last updated on Fri Jul 11 2025 00:02:28 GMT+0000 (Coordinated Universal Time)

1 40536U 15014A 25191.54680708 .00008141 00000+0 22320-3 0 9990 2 40536 97.6572 158.4116 0003655 18.7695 341.3683 15.37564552569064
UTC large
Height (km)
Speed (km/s)
/
Latitude / Longitude
Inclination (degrees)
Orbital Period (minutes)
Azimuth
Elevation
Range (km)
Doppler Factor

Next 0 passes for location: London (51.5072 / 0.1276)

Sorry there are no passes over London.